Vorticity
18 -0 -4 34 -8 7 14 -7 -10 24 32 -3 14 -10 15 3 2 41 10 10 1 1 2 8 9 3 -2 4 3 5 3 5 5 3 3 8 8 6 12 9 5 9 7 6
10 -0 9 29 -11 13 -19 -28 7 35 40 4 29 -4 17 5 5 9 8 -26 20 4 0 14 7 6 -7 -4 7 2 -1 5 2 4 11 8 8 12 7 4 8 4 1 -2
11 1 7 -10 11 15 17 31 6 9 9 20 -18 49 10 4 6 3 -8 0 8 10 -3 2 10 6 -1 -2 11 -1 2 1 3 16 6 9 6 6 9 7 14 9 9 -9
-12 33 10 -1 12 7 24 13 13 4 4 1 18 8 5 10 4 4 9 4 15 1 -1 -4 1 5 5 0 5 5 1 9 13 6 6 8 7 4 7 3 0 10 -0 2
4 -5 -11 7 34 7 -0 23 -1 14 -13 11 12 3 -2 8 -8 10 0 7 2 -1 1 5 3 1 18 6 11 10 17 16 5 1 9 8 4 7 6 5 4 4 2 2
9 12 2 4 19 8 2 11 20 -5 22 14 20 -6 20 -1 -7 37 1 -2 -3 5 7 6 1 1 10 6 7 15 14 2 3 8 7 4 6 5 2 3 3 6 1 3
0 17 -5 13 9 -4 2 -2 14 19 16 -7 -14 24 -20 21 19 20 18 15 18 6 0 3 -3 14 7 12 12 10 6 2 5 7 3 3 4 4 2 3 5 7 0 4
-1 22 1 31 -14 19 -0 4 -10 9 5 -8 46 17 -27 26 31 12 15 -10 42 10 4 3 11 8 13 12 13 5 3 1 9 3 3 3 5 2 4 4 1 -5 4 12
9 14 17 17 -3 20 -3 -15 66 0 7 9 4 13 33 29 14 4 20 26 12 7 9 12 18 16 13 12 11 3 3 0 3 5 7 6 4 4 6 4 7 2 9 9
4 -6 0 24 -2 17 -0 -12 5 15 5 8 9 0 18 4 4 18 17 6 18 -8 2 11 11 10 10 14 16 5 2 1 2 2 7 4 5 4 6 3 5 5 12 7
11 5 21 31 21 16 20 9 7 -0 2 7 6 17 9 -13 17 11 22 6 -3 4 4 7 10 10 8 10 19 17 9 4 5 2 5 6 4 5 5 5 5 11 14 8
22 27 13 -0 -6 6 10 7 10 4 6 11 8 9 3 11 -1 3 31 11 11 4 5 5 2 5 7 4 8 14 10 14 12 8 7 7 5 6 4 3 4 19 5 11
3 12 15 24 2 9 11 19 -1 3 27 4 -11 -2 -26 -8 0 3 -0 42 4 10 9 8 4 -3 1 2 -0 4 1 6 18 13 11 12 9 6 7 6 15 7 10 7
10 -1 4 -0 -9 -27 1 33 13 6 15 1 -12 1 20 16 17 7 16 9 5 25 7 8 10 6 7 0 0 4 -2 8 10 12 15 16 9 14 8 7 13 12 5 3
12 14 1 3 1 1 15 9 -4 27 11 5 4 4 10 18 30 28 25 13 10 22 5 14 8 13 13 15 4 1 9 8 9 10 14 10 12 12 1 14 3 8 6 10
9 6 8 13 4 -2 8 -4 13 -1 6 -3 13 21 12 -4 -0 9 -4 -3 -0 5 4 7 18 14 10 6 3 3 11 10 10 11 12 6 10 10 13 10 10 2 -1 20
8 6 4 14 6 12 35 14 14 26 20 5 1 12 16 10 17 20 13 15 4 9 6 13 18 9 -0 4 11 11 11 12 11 10 7 2 9 9 5 8 20 12 6 6
13 7 11 13 19 14 16 19 7 10 9 14 28 15 13 16 8 2 2 3 14 16 7 11 13 17 5 6 19 13 11 10 11 10 6 5 8 4 9 24 11 10 18 4
5 5 3 -1 19 -14 -1 -8 4 7 2 9 3 0 9 0 4 6 -2 5 14 12 8 10 0 4 18 12 6 8 10 10 4 -3 13 15 -5 7 28 13 -9 33 6 8
12 13 9 13 8 -4 20 11 11 18 7 2 7 13 10 16 2 1 12 11 11 8 9 6 5 10 12 12 6 11 8 4 17 13 -2 4 14 31 5 -21 34 13 4 0
21 13 3 0 3 19 -3 4 5 15 9 9 4 1 -7 6 16 14 17 11 1 8 14 17 11 12 14 13 15 11 5 10 -15 7 3 31 31 -12 20 40 6 2 -3 7
9 13 27 13 7 15 22 11 7 12 11 4 -0 -2 8 6 11 12 11 8 6 4 6 9 8 11 15 15 13 11 11 6 10 23 21 28 5 35 14 12 3 -2 9 12
13 -5 6 -5 29 1 2 8 16 4 -11 -4 6 12 16 12 13 9 9 7 7 11 10 4 9 18 15 13 13 11 15 25 27 5 17 27 27 7 12 0 -1 10 10 12
4 11 -5 9 9 24 19 19 9 5 -7 11 11 7 10 9 8 8 12 12 10 2 13 13 16 7 6 15 -1 16 11 19 27 22 25 6 18 4 0 5 8 7 10 13
4 10 7 15 13 -10 -11 6 -3 0 -1 7 -2 3 9 13 13 10 10 4 1 14 9 12 7 10 24 19 22 29 20 18 13 9 11 7 2 5 8 6 6 8 8 11
15 9 3 9 8 7 7 4 -1 1 6 6 5 12 13 9 11 -1 0 19 1 19 14 25 17 23 21 17 12 11 8 9 11 9 6 6 6 7 9 6 7 8 8 9
Height
3127 3128 3128 3129 3130 3131 3134 3133 3133 3131 3133 3135 3136 3137 3137 3140 3142 3144 3146 3148 3152 3153 3153 3153 3154 3153 3153 3153 3153 3156 3159 3161 3160 3160 3162 3161 3161 3162 3162 3162 3160 3160 3159 3157
3130 3128 3129 3129 3129 3130 3131 3132 3129 3130 3132 3134 3136 3136 3136 3137 3141 3141 3142 3147 3148 3150 3151 3151 3151 3149 3148 3150 3154 3154 3157 3159 3159 3158 3158 3157 3157 3159 3158 3156 3155 3153 3153 3152
3128 3129 3129 3128 3128 3128 3132 3131 3128 3130 3132 3133 3134 3135 3137 3139 3143 3142 3144 3146 3146 3145 3148 3150 3150 3149 3147 3148 3151 3153 3153 3154 3154 3153 3153 3153 3154 3153 3152 3151 3151 3150 3148 3147
3127 3126 3128 3128 3127 3127 3129 3130 3130 3131 3133 3134 3134 3136 3137 3139 3142 3143 3140 3141 3140 3143 3144 3145 3147 3147 3146 3145 3149 3149 3149 3148 3148 3148 3149 3148 3147 3147 3147 3146 3146 3145 3144 3141
3126 3125 3127 3126 3127 3127 3128 3128 3129 3130 3131 3134 3134 3135 3133 3139 3137 3138 3142 3142 3139 3139 3140 3141 3142 3146 3145 3143 3144 3145 3144 3144 3144 3144 3144 3144 3143 3142 3142 3140 3138 3137 3134 3131
3124 3125 3126 3125 3125 3127 3127 3127 3128 3128 3128 3130 3129 3129 3127 3128 3128 3131 3135 3137 3138 3136 3136 3136 3138 3139 3140 3140 3139 3139 3140 3140 3140 3140 3140 3141 3141 3140 3137 3135 3133 3131 3129 3127
3122 3123 3126 3126 3126 3126 3127 3127 3127 3129 3130 3131 3128 3128 3123 3123 3125 3126 3127 3130 3134 3132 3132 3131 3132 3137 3135 3136 3135 3134 3135 3137 3138 3137 3136 3135 3135 3134 3133 3131 3130 3129 3126 3121
3121 3123 3124 3126 3127 3127 3126 3126 3126 3131 3134 3130 3128 3127 3120 3119 3120 3124 3127 3130 3129 3129 3130 3130 3130 3131 3132 3133 3132 3131 3132 3134 3135 3135 3134 3133 3131 3130 3129 3127 3125 3122 3118 3113
3117 3120 3121 3123 3122 3127 3125 3124 3123 3123 3127 3129 3126 3120 3117 3115 3118 3120 3120 3122 3123 3125 3127 3128 3127 3126 3128 3129 3129 3127 3128 3130 3131 3132 3131 3129 3127 3126 3124 3121 3117 3113 3109 3104
3114 3117 3117 3123 3121 3120 3122 3123 3123 3120 3126 3126 3120 3119 3117 3118 3118 3117 3117 3118 3119 3122 3123 3122 3121 3121 3122 3124 3125 3123 3122 3124 3125 3126 3125 3123 3121 3119 3116 3112 3108 3104 3101 3095
3112 3115 3114 3120 3119 3119 3120 3118 3119 3120 3120 3120 3124 3120 3118 3118 3117 3115 3114 3114 3116 3117 3117 3117 3116 3116 3118 3118 3120 3120 3116 3117 3119 3120 3117 3115 3112 3110 3107 3103 3100 3096 3091 3087
3112 3110 3110 3113 3115 3115 3116 3116 3116 3116 3118 3117 3117 3117 3117 3116 3116 3115 3115 3114 3114 3114 3114 3113 3113 3111 3111 3111 3113 3114 3112 3110 3110 3111 3109 3107 3104 3102 3099 3095 3091 3086 3081 3077
3105 3106 3108 3111 3113 3113 3112 3112 3113 3112 3112 3112 3114 3114 3113 3113 3113 3112 3112 3113 3113 3112 3111 3110 3108 3106 3107 3106 3106 3106 3106 3105 3103 3103 3102 3099 3097 3093 3089 3085 3080 3074 3070 3067
3102 3103 3105 3106 3108 3110 3109 3107 3108 3109 3108 3110 3109 3110 3109 3109 3109 3109 3109 3109 3109 3108 3108 3106 3103 3102 3100 3101 3101 3101 3101 3099 3097 3095 3093 3092 3087 3084 3079 3075 3071 3066 3062 3059
3097 3098 3101 3103 3105 3105 3104 3105 3105 3105 3105 3105 3107 3107 3107 3106 3105 3104 3104 3105 3106 3106 3105 3103 3100 3099 3098 3097 3097 3096 3095 3092 3090 3087 3085 3082 3078 3074 3069 3065 3062 3057 3054 3050
3092 3094 3097 3099 3100 3100 3100 3101 3100 3101 3101 3101 3102 3103 3105 3103 3102 3102 3101 3101 3101 3102 3103 3101 3099 3097 3096 3094 3091 3089 3088 3085 3083 3080 3077 3074 3069 3066 3062 3058 3052 3048 3045 3044
3091 3093 3094 3096 3097 3097 3097 3096 3096 3096 3098 3099 3099 3099 3100 3098 3096 3095 3096 3096 3096 3096 3096 3097 3095 3093 3090 3088 3086 3084 3081 3079 3076 3073 3070 3067 3062 3058 3051 3046 3042 3041 3038 3036
3086 3090 3091 3092 3094 3097 3092 3091 3092 3093 3094 3094 3093 3093 3094 3094 3091 3092 3092 3092 3092 3090 3090 3090 3090 3089 3086 3083 3081 3078 3075 3072 3069 3066 3061 3056 3051 3046 3040 3037 3037 3036 3033 3029
3085 3085 3086 3088 3089 3089 3088 3088 3089 3089 3091 3090 3091 3089 3090 3091 3089 3090 3090 3088 3088 3086 3084 3082 3082 3082 3079 3077 3075 3072 3069 3066 3061 3056 3051 3045 3041 3034 3031 3032 3032 3030 3026 3024
3079 3081 3083 3084 3085 3086 3084 3085 3085 3086 3086 3087 3087 3088 3087 3087 3087 3086 3085 3083 3082 3080 3077 3077 3076 3073 3071 3069 3066 3063 3059 3055 3051 3046 3041 3036 3029 3027 3029 3029 3026 3022 3020 3018
3074 3076 3078 3080 3081 3080 3080 3082 3082 3084 3087 3083 3084 3084 3084 3083 3084 3082 3079 3076 3074 3074 3072 3072 3071 3068 3065 3062 3058 3055 3051 3045 3040 3037 3032 3028 3025 3028 3026 3022 3018 3016 3014 3010
3070 3072 3074 3077 3078 3078 3076 3077 3080 3080 3078 3080 3080 3079 3079 3079 3078 3077 3072 3068 3067 3068 3068 3066 3063 3061 3059 3056 3052 3048 3043 3039 3035 3026 3028 3025 3025 3021 3018 3015 3013 3010 3006 3002
3068 3069 3071 3074 3073 3073 3073 3073 3074 3074 3077 3076 3075 3073 3073 3073 3071 3069 3067 3065 3064 3063 3062 3059 3056 3053 3051 3048 3045 3042 3039 3035 3031 3028 3024 3020 3017 3014 3011 3008 3006 3003 2999 2993
3064 3066 3068 3070 3071 3071 3071 3072 3069 3069 3070 3070 3069 3069 3068 3067 3065 3064 3061 3059 3057 3055 3052 3049 3046 3044 3041 3038 3035 3031 3028 3025 3022 3019 3016 3014 3010 3007 3005 3002 2998 2995 2992 2988
3060 3063 3064 3066 3068 3066 3066 3066 3065 3065 3065 3064 3064 3064 3062 3060 3058 3057 3055 3052 3049 3045 3042 3039 3036 3034 3031 3028 3025 3022 3019 3016 3014 3012 3009 3006 3003 3001 2998 2994 2990 2986 2983 2979
3055 3057 3059 3059 3061 3059 3061 3061 3061 3061 3061 3058 3059 3056 3055 3053 3051 3049 3047 3044 3041 3038 3034 3030 3027 3025 3023 3020 3017 3015 3013 3011 3008 3006 3003 3000 2997 2993 2990 2986 2982 2978 2974 2970